Notices

Please take our survey and provide feedback: https://eccc.sondage-survey.ca/f/LanguageSelection.aspx?s=442ca660-fcf1-47c0-95a9-59707d6fd709

Please note that the IDF dataset is available through this link: Intensity-Duration-Frequency (IDF) Files .

Hourly Data Report for November 11, 2017

VICTORIA UNIVERSITY CS
BRITISH COLUMBIA

48°27'25.200" N
123°18'16.600" W
60.10 m
1018598
71783
WYJ

Download Data

Hourly Data (November 2017)
Hourly Data Report for November 11, 2017
TIME
LST
Temp Definition
°C
Dew Point Definition
°C
Rel Hum Definition
%
Precip. Amount Definition
mm

Wind Dir Definition
10's deg

Wind Spd Definition
km/h
Visibility Definition
km
Stn Press Definition
kPa
Hmdx Definition


Wind Chill Definition


Weather Definition


00:00 7.6 6.8 95 0.0 4 1   100.84     LegendNANA
01:00 7.7 6.7 93 0.0 0 1   100.83     LegendNANA
02:00 7.7 6.5 92 0.0 6 1   100.86     LegendNANA
03:00 7.7 6.5 92 0.0 8 2   100.85     LegendNANA
04:00 7.5 6.6 94 0.0 9 3   100.82     LegendNANA
05:00 7.5 6.3 92 0.0 9 4   100.82     LegendNANA
06:00 7.1 5.8 92 0.0 8 4   100.78     LegendNANA
07:00 7.1 5.5 90 0.0 9 3   100.75     LegendNANA
08:00 7.2 5.2 87 0.0 8 4   100.74     LegendNANA
09:00 7.7 5.7 87 0.0 7 4   100.73     LegendNANA
10:00 8.1 5.6 84 0.0 6 3   100.72     LegendNANA
11:00 8.3 5.5 82 0.0 6 4   100.69     LegendNANA
12:00 9.0 5.9 81 0.0 7 7   100.63     LegendNANA
13:00 8.8 7.0 88 0.0 13 3   100.59     LegendNANA
14:00 9.4 7.6 89 0.0 8 3   100.55     LegendNANA
15:00 9.0 7.1 88 0.0 9 3   100.54     LegendNANA
16:00 8.7 7.3 91 0.0 4 1   100.51     LegendNANA
17:00 8.7 7.9 95 0.0 9 3   100.48     LegendNANA
18:00 9.1 7.9 92 0.0 12 1   100.47     LegendNANA
19:00 9.4 8.0 91 0.0 15 3   100.49     LegendNANA
20:00 9.2 7.4 88 0.0 12 3   100.49     LegendNANA
21:00 9.1 7.6 90 0.0 14 5   100.47     LegendNANA
22:00 8.5 7.3 92 0.0 15 2   100.49     LegendNANA
23:00 8.2 7.1 93 0.0   0   100.48     LegendNANA

Notes on Data Quality.

Legend

  • E = Estimated
  • M = Missing
  • NA = Not Available*
  • [empty] = Indicates an unobserved value
Date modified: